Location: Maignaut
(43.8886°N, 0.4051°E)
Time: 18:39:43
(UTC+00:00)

FengYun 1-2 T - Pass Details

Date: 17 January 2021
Orbit: 847 x 881 km, 98.7° (Epoch: 28 February)

Event Time Altitude Azimuth Distance (km) Brightness Sun altitude
Rises 17:17:06 0° 155° (SSE) 3,412 7.3 -5.4°
Reaches altitude 10° 17:19:28 10° 153° (SSE) 2,485 6.6 -5.8°
Maximum altitude 17:24:56 66° 72° (ENE) 944 4.3 -6.7°
Drops below altitude 10° 17:30:29 10° 352° (N) 2,524 6.6 -7.6°
Sets 17:32:54 0° 349° (N) 3,471 7.3 -8.0°
